Wind_Speed
1 2 2 3 3 3 4 4 3 3 3 3 3 4 4 4 5 5 5 5 5 5 6 6 6 6 6 6 6 6 6 7 7 7 7 7 7 7 7 7 7 7 7
1 2 2 2 2 3 3 3 3 2 2 3 3 3 3 4 4 4 4 5 5 5 5 5 5 5 5 5 5 6 6 6 6 6 7 7 6 6 6 6 6 6 7
0 1 2 2 2 3 3 2 2 2 1 1 2 2 2 3 3 4 4 4 4 5 5 5 5 5 5 5 4 5 5 5 5 6 6 6 6 6 6 6 6 6 6
0 2 3 3 2 3 3 2 2 1 0 0 1 1 2 2 3 3 3 4 4 4 4 4 4 4 4 4 4 4 4 5 6 6 6 5 5 6 6 6 6 6 6
1 2 3 3 3 3 3 3 2 2 1 1 0 0 1 1 2 2 2 3 3 3 3 3 3 4 4 4 4 4 4 4 4 4 5 4 4 5 5 5 5 6 6
2 3 4 4 4 4 4 4 3 3 2 2 1 1 0 1 1 1 2 2 3 3 3 3 3 3 3 3 3 3 3 3 3 3 3 3 4 4 4 4 5 5 5
2 3 5 5 4 4 4 4 4 3 3 3 2 2 1 1 1 1 1 2 2 3 3 3 2 2 2 2 2 2 2 2 2 2 2 3 3 3 3 4 4 4 4
4 3 4 5 5 5 5 5 5 4 4 3 3 3 2 2 1 1 1 2 2 2 3 2 2 2 1 1 1 1 1 1 1 1 1 2 2 2 2 2 3 4 4
4 4 4 6 6 6 5 6 6 5 4 4 4 4 3 3 2 2 2 2 2 2 3 2 2 2 1 1 0 0 1 0 0 1 1 1 1 1 1 2 2 3 3
5 5 6 6 7 6 6 6 6 6 6 5 5 5 4 4 3 3 3 3 3 3 3 3 2 2 1 1 1 1 1 1 1 1 0 1 1 1 1 2 2 2 1
5 6 7 7 7 8 8 8 8 7 7 6 6 6 5 5 5 4 4 4 4 4 4 4 3 2 2 1 1 1 1 1 1 1 1 1 0 0 1 1 1 0 1
5 6 7 8 8 9 10 9 9 9 8 7 7 7 7 6 6 5 4 4 4 4 4 4 4 3 2 2 2 1 1 1 1 0 0 0 0 1 1 0 1 1 2
6 7 8 9 9 10 10 11 10 10 9 8 8 8 7 7 6 5 5 5 4 4 4 4 4 3 2 1 2 2 1 2 2 1 1 1 0 1 1 1 2 2 3
8 8 9 10 11 11 11 11 11 11 10 9 8 8 8 8 7 6 6 5 5 5 4 3 3 3 3 2 2 3 2 2 2 2 2 1 1 1 1 1 2 3 3
9 9 10 10 11 11 11 12 11 11 11 10 9 8 8 8 8 7 6 5 5 4 4 4 4 4 4 3 3 3 3 2 2 2 2 2 1 1 1 1 2 3 3
9 9 10 11 11 12 12 12 12 11 11 10 10 8 8 8 8 7 6 6 5 4 4 4 4 4 4 4 3 3 3 3 3 3 2 2 1 1 1 2 2 3 3
9 9 10 12 12 12 13 12 12 13 12 11 10 9 8 9 8 7 6 6 5 4 4 4 4 3 3 3 2 2 2 2 3 2 2 2 2 2 2 2 2 3 3
10 10 10 11 13 13 13 13 13 13 13 12 12 10 8 9 9 8 7 6 6 5 4 4 3 3 2 2 1 1 1 1 2 2 2 2 2 1 1 2 2 2 3
10 10 10 11 12 13 13 13 13 13 13 13 12 11 9 9 9 9 8 7 6 6 5 4 3 2 2 1 1 1 1 1 2 2 1 1 1 1 0 1 2 2 1
12 11 10 11 13 13 13 13 13 13 14 14 13 12 11 10 10 9 8 7 6 6 5 4 3 2 3 2 1 1 2 2 3 3 3 3 2 2 2 2 2 2 2
11 10 10 10 11 13 13 14 13 13 14 14 14 13 12 11 10 10 9 8 7 6 6 5 4 3 3 3 2 2 2 3 3 3 3 2 2 2 2 2 2 3 2
9 9 10 10 11 13 13 13 13 14 15 14 14 13 13 13 11 11 11 9 8 7 6 6 5 3 3 4 4 3 2 3 3 2 2 2 2 2 2 2 2 2 2
10 9 9 10 11 13 13 14 14 15 14 14 13 14 13 13 13 12 12 10 9 8 7 7 6 4 5 5 5 3 3 2 2 2 2 2 2 2 1 1 1 2 2
10 10 10 9 11 12 13 14 15 15 15 14 14 15 14 14 13 13 13 11 10 9 9 8 7 6 6 6 6 5 3 3 2 2 2 2 2 2 1 1 2 2 1
11 10 10 10 11 12 13 14 15 15 16 16 15 15 15 14 14 14 14 12 12 11 10 9 8 7 7 7 6 5 4 3 3 2 2 1 1 1 1 1 1 1 1
10 10 11 11 12 12 13 14 15 15 15 16 16 16 16 15 15 15 15 14 13 12 11 10 9 8 8 7 6 5 4 3 3 3 2 2 2 1 1 1 1 1 1
Wind_Direction
50 91 106 116 108 103 94 86 83 74 75 88 94 93 92 94 94 97 97 96 96 95 90 90 94 106 109 110 111 110 106 103 104 105 102 99 99 99 98 97 97 100 99
64 122 127 116 124 123 109 99 90 82 74 84 91 90 88 90 91 90 87 89 86 83 81 84 84 93 104 110 110 113 112 112 106 104 101 99 98 97 99 99 99 103 101
98 157 154 150 146 143 129 118 110 93 73 72 76 82 87 88 86 85 83 81 80 80 76 76 79 83 92 100 106 109 112 111 109 105 102 100 98 98 99 100 102 107 106
227 191 180 178 176 168 157 147 140 123 74 60 61 79 85 80 77 77 80 77 75 71 67 70 74 78 80 85 95 101 102 103 102 101 100 100 99 98 101 101 100 104 109
267 218 199 195 191 188 184 178 179 183 210 235 219 103 66 62 66 65 68 68 63 57 59 60 66 73 81 84 90 106 101 100 98 101 101 103 105 104 105 103 101 103 105
281 235 218 208 205 203 202 197 195 195 210 224 229 242 334 29 28 42 51 55 48 43 43 42 45 59 78 88 94 101 99 102 102 107 106 109 109 108 108 108 107 108 106
294 265 233 216 210 206 209 208 202 207 217 226 235 247 256 276 308 353 17 32 29 25 27 29 28 41 61 72 86 92 93 92 111 120 110 113 116 109 108 115 114 113 110
289 272 245 225 214 214 212 210 209 213 220 229 238 245 250 259 283 307 335 4 6 7 11 14 17 24 39 53 48 35 79 91 144 142 134 127 125 121 116 120 125 120 111
279 264 248 229 218 219 219 215 216 219 222 230 238 240 245 257 271 278 294 319 332 342 349 354 356 2 14 24 335 266 213 198 217 216 180 152 107 100 126 127 126 127 119
275 255 250 238 223 221 222 221 224 228 231 236 239 242 244 250 262 269 284 295 311 321 325 331 336 334 329 324 303 258 242 245 213 223 92 52 73 104 139 131 123 136 154
269 255 249 239 231 229 227 226 228 232 234 241 241 241 245 251 260 270 276 289 302 309 313 313 313 314 310 308 300 279 266 257 227 301 349 28 86 158 128 119 107 125 242
270 256 251 242 237 235 232 232 232 233 235 238 241 238 245 253 260 268 267 285 295 301 306 301 300 306 309 309 303 284 273 255 297 345 321 312 121 172 189 326 342 334 310
270 257 252 245 244 242 240 238 235 232 235 237 240 239 243 253 257 260 262 275 280 285 293 294 299 308 313 307 300 285 273 250 280 267 261 276 217 208 253 314 318 310 294
270 259 250 245 243 242 243 243 238 234 233 238 233 235 244 254 252 257 260 263 269 277 285 284 289 296 301 297 294 291 262 260 265 266 259 254 240 225 261 291 291 294 290
270 258 248 250 245 243 242 241 240 232 231 234 234 236 246 251 245 247 252 255 268 272 270 273 281 286 293 293 279 273 271 268 266 261 254 252 242 225 256 284 287 291 286
275 257 246 245 242 243 238 239 237 229 233 233 232 235 243 245 240 240 247 254 255 260 254 262 276 284 283 278 269 268 271 268 253 250 245 247 258 274 292 298 292 290 294
279 268 253 241 238 237 233 233 228 226 229 229 229 230 235 235 231 232 236 240 251 246 244 256 265 276 284 274 265 261 267 265 252 251 243 247 264 274 285 291 295 293 292
276 268 257 244 237 232 227 228 227 227 227 228 227 225 225 225 226 226 226 233 237 235 239 247 257 266 279 269 253 214 224 240 222 231 238 238 246 251 278 301 309 299 293
275 267 264 250 237 233 228 227 228 225 226 226 224 221 220 221 221 222 223 224 229 233 236 238 249 245 236 221 173 133 145 154 147 158 152 160 166 161 39 5 6 357 331
273 266 262 251 238 231 228 224 223 222 222 222 219 218 217 217 218 218 216 218 221 226 228 224 221 216 207 192 152 122 120 129 125 116 107 108 109 115 95 65 46 49 50
271 265 257 248 241 233 228 222 217 216 217 219 218 219 218 216 217 217 218 216 219 220 217 210 201 198 197 186 159 129 123 127 120 109 105 97 105 124 112 83 68 74 74
266 262 256 246 236 228 224 219 215 214 216 217 217 217 217 215 216 218 213 213 216 216 209 200 193 191 185 177 170 154 144 131 120 106 104 88 98 100 104 84 92 83 74
262 261 254 247 233 225 224 220 217 215 214 216 216 215 216 215 213 213 212 210 208 205 203 201 198 191 178 172 172 172 161 151 133 116 101 95 93 101 100 110 103 79 73
259 255 250 243 229 222 218 217 218 215 215 214 214 213 214 215 212 209 210 210 208 206 204 203 198 190 183 175 173 173 164 157 142 128 118 113 113 115 110 103 95 83 72
258 253 246 241 228 222 218 217 219 217 216 216 216 213 213 214 211 209 210 212 211 209 207 204 200 195 192 185 182 181 178 175 167 155 154 146 141 139 129 125 108 77 29
254 251 245 237 227 221 219 218 221 219 219 219 218 216 214 214 211 209 210 212 211 210 208 206 202 202 200 194 195 195 193 195 198 191 182 176 179 171 168 188 235 292 322
Height
5884 5883 5884 5884 5884 5885 5885 5886 5886 5887 5887 5888 5888 5888 5888 5888 5888 5888 5888 5888 5887 5887 5887 5886 5886 5886 5886 5886 5886 5886 5886 5886 5886 5885 5885 5885 5885 5885 5885 5885 5885 5885 5884
5884 5884 5884 5884 5885 5885 5886 5886 5887 5888 5888 5889 5889 5889 5889 5889 5889 5889 5889 5888 5888 5888 5888 5887 5887 5887 5887 5886 5886 5886 5886 5886 5886 5886 5886 5886 5886 5886 5886 5886 5886 5886 5886
5884 5884 5885 5885 5885 5886 5886 5887 5888 5888 5889 5889 5890 5890 5890 5890 5890 5890 5890 5890 5889 5889 5889 5888 5888 5888 5887 5887 5887 5887 5887 5887 5887 5887 5887 5887 5887 5887 5887 5887 5887 5887 5887
5884 5884 5885 5885 5886 5886 5887 5888 5888 5889 5890 5890 5891 5891 5891 5891 5891 5891 5891 5891 5890 5890 5890 5889 5889 5888 5888 5888 5888 5887 5888 5888 5888 5888 5888 5888 5888 5888 5888 5888 5888 5888 5888
5884 5884 5885 5885 5886 5887 5887 5888 5889 5890 5890 5891 5891 5892 5892 5892 5892 5892 5892 5891 5891 5891 5890 5890 5889 5889 5889 5888 5888 5888 5888 5888 5888 5889 5889 5889 5889 5889 5889 5889 5889 5889 5889
5883 5884 5885 5885 5886 5887 5887 5888 5889 5890 5891 5891 5892 5892 5892 5893 5893 5893 5893 5892 5892 5891 5891 5891 5890 5890 5889 5889 5889 5889 5889 5889 5889 5889 5889 5889 5889 5889 5889 5890 5890 5890 5890
5883 5883 5884 5885 5885 5886 5887 5888 5889 5890 5891 5892 5892 5893 5893 5893 5893 5893 5893 5893 5892 5892 5892 5891 5891 5890 5890 5890 5889 5889 5889 5889 5889 5889 5890 5890 5890 5890 5890 5890 5890 5891 5891
5882 5882 5883 5884 5885 5886 5887 5888 5889 5890 5891 5891 5892 5893 5893 5893 5894 5894 5894 5893 5893 5892 5892 5892 5891 5891 5890 5890 5890 5889 5889 5889 5889 5889 5890 5890 5890 5890 5890 5890 5891 5891 5891
5881 5881 5882 5883 5884 5885 5886 5887 5888 5889 5890 5891 5892 5892 5893 5893 5894 5894 5894 5893 5893 5893 5892 5892 5891 5891 5890 5890 5890 5890 5889 5889 5889 5889 5890 5890 5890 5890 5890 5891 5891 5891 5891
5879 5880 5881 5882 5883 5884 5885 5886 5887 5888 5889 5890 5891 5892 5893 5893 5894 5894 5894 5893 5893 5893 5892 5892 5891 5891 5890 5890 5890 5890 5890 5889 5889 5889 5890 5890 5890 5890 5890 5890 5891 5891 5891
5878 5879 5880 5881 5882 5883 5884 5885 5886 5887 5888 5889 5890 5891 5892 5893 5893 5893 5893 5893 5893 5892 5892 5892 5891 5890 5890 5890 5890 5890 5890 5890 5890 5890 5890 5890 5890 5890 5890 5890 5891 5891 5891
5877 5878 5879 5879 5880 5881 5882 5883 5885 5886 5887 5888 5889 5890 5891 5892 5892 5892 5893 5892 5892 5892 5891 5891 5891 5890 5890 5890 5890 5890 5890 5890 5890 5890 5890 5890 5890 5890 5890 5890 5890 5890 5890
5875 5876 5877 5878 5878 5879 5881 5882 5883 5884 5885 5886 5887 5888 5890 5890 5891 5891 5892 5892 5891 5891 5891 5890 5890 5890 5890 5890 5890 5889 5889 5889 5889 5889 5889 5889 5889 5889 5890 5890 5890 5890 5890
5873 5874 5874 5875 5876 5877 5878 5880 5881 5882 5883 5885 5886 5887 5888 5889 5890 5890 5891 5891 5891 5890 5890 5890 5890 5889 5889 5889 5889 5889 5889 5889 5889 5889 5889 5889 5889 5889 5889 5889 5889 5889 5889
5871 5871 5872 5873 5874 5875 5876 5878 5879 5880 5882 5883 5884 5885 5887 5887 5888 5889 5889 5890 5890 5889 5889 5889 5889 5889 5889 5889 5889 5888 5888 5889 5888 5888 5888 5888 5888 5888 5888 5888 5888 5888 5887
5868 5868 5869 5870 5871 5872 5873 5875 5876 5878 5879 5881 5883 5884 5885 5886 5887 5888 5888 5889 5889 5889 5888 5888 5888 5888 5888 5888 5888 5888 5888 5888 5887 5888 5888 5888 5888 5887 5887 5887 5887 5887 5886
5866 5865 5866 5867 5868 5870 5871 5873 5874 5875 5877 5879 5881 5882 5883 5884 5885 5886 5887 5887 5888 5888 5888 5888 5888 5888 5888 5888 5888 5887 5887 5887 5887 5887 5887 5887 5887 5887 5886 5886 5886 5885 5885
5862 5862 5863 5864 5865 5866 5868 5870 5872 5873 5875 5876 5878 5880 5881 5882 5884 5885 5886 5886 5887 5887 5887 5887 5887 5887 5887 5887 5887 5887 5886 5886 5886 5886 5886 5886 5886 5886 5886 5885 5885 5884 5884
5859 5859 5860 5860 5861 5863 5865 5867 5869 5871 5872 5874 5876 5878 5879 5881 5882 5883 5884 5885 5886 5886 5887 5887 5887 5887 5887 5887 5886 5886 5886 5886 5886 5886 5886 5886 5885 5885 5885 5885 5884 5883 5883
5855 5856 5856 5857 5858 5860 5862 5864 5867 5868 5870 5872 5874 5876 5877 5879 5880 5882 5883 5884 5885 5885 5886 5886 5886 5886 5887 5886 5886 5886 5886 5886 5886 5885 5885 5885 5885 5885 5885 5884 5884 5883 5883
5851 5853 5853 5854 5855 5857 5859 5860 5863 5866 5868 5869 5871 5873 5875 5877 5878 5880 5882 5883 5884 5884 5885 5885 5886 5886 5886 5886 5886 5886 5886 5886 5886 5886 5885 5885 5885 5885 5885 5884 5884 5883 5883
5849 5849 5850 5851 5852 5854 5856 5857 5860 5863 5865 5866 5868 5871 5873 5875 5877 5878 5880 5881 5882 5883 5884 5884 5885 5886 5886 5886 5886 5886 5886 5887 5886 5886 5886 5886 5885 5885 5885 5884 5884 5883 5883
5846 5847 5847 5848 5849 5851 5853 5855 5858 5860 5862 5864 5866 5868 5870 5872 5874 5876 5878 5879 5880 5882 5883 5884 5884 5885 5885 5886 5886 5887 5887 5887 5887 5887 5886 5886 5885 5885 5885 5884 5884 5883 5883
5843 5843 5844 5845 5846 5848 5849 5852 5854 5857 5859 5861 5863 5865 5867 5870 5872 5873 5876 5877 5879 5880 5881 5882 5883 5884 5884 5885 5886 5886 5887 5887 5887 5887 5886 5886 5885 5885 5885 5884 5884 5883 5883
5840 5840 5841 5842 5843 5845 5847 5849 5851 5854 5856 5858 5860 5862 5865 5867 5869 5871 5873 5875 5877 5879 5880 5881 5882 5883 5884 5884 5885 5885 5886 5886 5886 5886 5886 5886 5886 5885 5885 5884 5884 5883 5883
5836 5837 5838 5839 5840 5842 5844 5846 5848 5850 5852 5854 5857 5859 5862 5864 5866 5868 5871 5873 5875 5877 5878 5880 5881 5882 5882 5883 5884 5885 5885 5885 5886 5886 5886 5885 5885 5885 5884 5884 5884 5883 5882